Simultaneous Nadir Overpasses (SNOs) Predictions

Prediction of SNOs between NOAA-20 and PACE Satellite Orbit:

Table of predicted SNOs for the next 14.0 days since TLE Epoch: 8/25/2024
Index Date (NOAA-20) Time (NOAA-20) Lat,Lon (NOAA-20) SZA (NOAA-20 ) Date (PACE) Time (PACE) Lat,Lon (PACE) SZA (PACE ) Distance(km) Time Diff (sec)
1 08/25/2024 14:37:24 -79.89, 102.95 108.36 08/25/2024 14:37:26 -79.89, 102.97 108.36 0.63 2
2 08/27/2024 18:13:05 79.98,-131.78 72.53 08/27/2024 18:13:58 79.98,-131.84 72.52 1.09 53
3 08/27/2024 19:03:43 -79.76, 37.57 107.85 08/27/2024 19:03:01 -79.77, 37.46 107.81 2.34 42
4 08/29/2024 22:39:24 79.86, 162.79 73.07 08/29/2024 22:39:32 79.86, 162.65 73.08 2.73 8
5 09/01/2024 02:15:06 -79.97, -72.25 105.97 09/01/2024 02:16:02 -79.97, -72.30 105.99 1.11 56
6 09/01/2024 03:05:44 79.77, 97.00 73.67 09/01/2024 03:05:06 79.78, 96.86 73.71 2.96 38
7 09/03/2024 06:41:26 -79.89,-138.06 105.35 09/03/2024 06:41:35 -79.89,-138.05 105.36 0.49 9
8 09/05/2024 10:17:06 79.97, -12.78 75.58 09/05/2024 10:18:03 79.98, -12.89 75.57 2.43 57
9 09/05/2024 11:07:47 -79.84, 155.77 104.65 09/05/2024 11:07:08 -79.84, 155.93 104.65 3.17 39



Historial Predications of SNOs between NOAA-20 and PACE
